THORAD DELTA 1 DEB, 8168

Orbit data source: Space-Track

THORAD DELTA 1 DEB, 8168 is space debris in SSO originally from a launch on Fri, 15 Nov 1974 UTC launched from the Air Force Western Test Range (AFWTR). Debris objects in space refer to the collection of defunct objects orbiting the Earth. Examples of debris include non-operational satellites, rocket bodies, and fragments generated from explosions, collisions, or faulty payload assembly.

Loading next visibility...
THORAD DELTA 1 DEB details
Identifier
8168, 1974-089AJ
Orbit
SSO
Last TLE update22 hours ago
Origin
Flag of USGSFC (US)
ManufacturerUnknown
MissionSpacecraft
Bus & MotorUnknown
MassUnknown
Launch date (UTC)
1974-11-15 (50 years ago)
Launch vehicleUnknown
Launch site
Air Force Western Test Range (AFWTR)
Object type
Payload
Rocket body
Debris
Shape & HBRUnknown
Radar Cross Section0.280 m², Medium (>0.1 m² and < 1m²)

Expand to show TLE details & history

TLE from 22 hours ago
0 THORAD DELTA 1 DEB
1 08168U 74089AJ  25037.74012723 -.00000011  00000-0  21737-3 0  9990
2 08168 101.8888 358.6604 0020777 148.1234 288.5166 12.52721972296503
Epoch: 2025-02-06T17:45Z
Definitive object data (Epoch: 2025-02-06T17:45:46.992Z)
Latitude72.0914°
Longitude-85.30938°
Altitude1,460.259 km
Speed7.141 km/s
True Right ascension21h 12m 59s
True Declination71° 59' 58"
Sunlit
Object was in daylight at TLE epoch
Visualization TLE readout
Latitude-40.67975°
Longitude125.63883°
Altitude1,464.222 km
Speed7.132 km/s
Apparent Right ascension08h 52m 01s
Apparent Declination-48° 06' 40"
Sunlit
Object is in daylight
Visualization observer readout
Local Sidereal Time17:48:32
Azimuth240.362° WSW
Elevation-56.539°
Doppler factor1
Orbital elements
Apogee altitude1,466.948 km
Perigee altitude1,434.416 km
Semi-major axis7,828.819 km
Eccentricity0.0020777
Inclination101.8888°
RAAN358.6604°
Arg. of periapsis148.1234°
True anomaly288.29065°
Mean anomaly288.5166°
Eccentric anomaly288.40364°
Mean motion3.13328 °/min
BSTAR0.00021737
Orbital period114.9 mins
Loading maneuver chart data...

THORAD DELTA 1 DEB Visibility forecast

Observer location: undefined°, undefined

Span
Click to sort rows by Start time (UTC) header in descending order
Start Az.
Max El. time (UTC)
Max El. Az.
Max El.
End time (UTC)
End Az.
5 mins2025-02-07 18:31:58.486Z61.532° ENE2025-02-07 18:33:58.486Z47.142° ENE11.597°2025-02-07 18:36:58.486Z25.33° NE
14 mins2025-02-07 20:18:58.486Z134.533° SE2025-02-07 20:24:58.486Z74.567° E38.801°2025-02-07 20:32:58.486Z351.897° N
12 mins2025-02-07 22:12:58.486Z208.883° SW2025-02-07 22:17:58.486Z256.366° W28.988°2025-02-07 22:24:58.486Z321.32° NNW
7 mins2025-02-08 08:23:58.486Z66.984° ENE2025-02-08 08:26:58.486Z90.606° ESE14.635°2025-02-08 08:30:58.486Z120.986° SE
15 mins2025-02-08 10:13:58.486Z19.604° NNE2025-02-08 10:20:58.486Z131.424° SE44.782°2025-02-08 10:28:58.486Z196.503° SSW
10 mins2025-02-08 12:07:58.486Z347.102° N2025-02-08 12:12:58.486Z303.996° NW21.252°2025-02-08 12:17:58.486Z263.328° W
|